Location: Billère
(43.3000°N, 0.4000°W)
Time: 13:07:56
(UTC+00:00)

Daily predictions for brighter satellites

Satellite Brightness Start Highest point End
(mag) Time Altitude Azimuth Time Altitude Azimuth Time Altitude Azimuth
Cosmos 1954 Rocket 4.0 20:13:06 10° NNW 20:18:24 82° ENE 20:23:36 10° SSE
Cosmos 1544 Rocket 3.9 20:16:15 10° N 20:20:28 47° ENE 20:24:38 10° SSE
Lacrosse 5 rocket 2.5 20:17:34 10° WNW 20:21:03 33° SW 20:24:42 10° SSE
Cosmos 1656 4.1 20:17:16 10° NNW 20:22:34 48° ENE 20:27:54 10° SE
GEOS 3 Rocket 3.7 20:18:01 10° SE 20:23:06 76° NE 20:28:14 10° NW
ATLAS 2AS CENTAUR R/B 2.8 20:21:49 10° NW 20:28:55 84° WSW 20:35:32 10° SSE
MetOp-B 4.5 20:24:42 10° SE 20:29:52 51° ENE 20:35:03 10° N
PSLV R/B 3.9 20:28:57 10° NNE 20:33:08 84° ESE 20:37:18 10° SSW
Cosmos 1980 Rocket 4.1 20:29:55 10° N 20:33:45 18° NE 20:37:34 10° E
USA 32 4.1 20:28:45 10° S 20:33:53 65° E 20:39:04 10° N
Cosmos 1697 Rocket 3.8 20:29:32 10° N 20:34:30 31° NE 20:39:25 10° ESE
SL-8 R/B 4.1 20:31:08 10° WNW 20:35:54 61° NNE 20:40:40 10° E
TSX-5 4.3 20:32:29 10° SSW 20:36:51 75° ESE 20:42:34 10° NNE
SPOT 1/Viking Rocket 3.6 20:35:03 10° SSE 20:40:11 87° ENE 20:45:23 10° NNW
COSMOS 2406 4.3 20:37:12 10° SSE 20:41:47 25° ESE 20:46:23 10° NE
Spot 2 Rocket 4.5 20:38:47 11° SE 20:43:10 33° ENE 20:47:43 10° N
Cosmos 1025 Rocket 3.9 20:39:29 10° SSW 20:43:38 52° WNW 20:47:51 10° N
X-37B 0.7 20:41:09 10° WNW 20:43:57 61° N 20:46:44 10° E
NOSS 2-1 (E) 4.4 20:43:44 10° NW 20:48:36 75° SW 20:55:09 12° SSE
SPOT 5 3.5 20:49:45 14° SE 20:53:06 35° ENE 20:57:02 10° N
Cosmos 1703 3.5 20:51:13 10° SSE 20:54:52 47° E 20:58:35 10° NNE
Cosmos 1452 Rocket 3.5 20:52:15 10° SSW 20:57:30 84° ESE 21:02:47 10° NNE
Cosmos 1833 Rocket 2.7 20:52:12 10° S 20:57:40 58° ESE 21:03:11 10° NNE
RESURS DK-1 2.5 20:54:10 10° NNW 20:58:17 61° ENE 21:01:19 17° SE
Delta 2 Rocket 4.1 20:56:13 10° SW 20:58:51 21° S 20:59:57 18° SSE
Terra 2.9 20:56:28 14° ESE 20:59:49 31° ENE 21:03:59 10° N
CZ-4B R/B 2.1 21:00:26 10° N 21:03:12 45° WNW 21:05:58 10° SSW
Cosmos 1110 Rocket 4.1 20:58:22 10° S 21:03:31 60° ESE 21:08:44 10° NNE
Helios 1A Rocket 3.6 21:01:06 17° SE 21:03:52 40° ENE 21:07:43 10° N
ERS-1 Rocket 3.5 21:02:33 16° SE 21:06:18 46° ENE 21:11:06 10° N
Resurs 01 Rocket 2.8 21:02:35 10° SSW 21:06:45 40° W 21:10:59 10° NNW
Cosmos 2228 3.2 21:08:22 10° N 21:12:33 55° E 21:15:16 20° SSE
Cosmos 1408 4.3 21:16:14 15° E 21:16:36 15° E 21:18:38 10° NE
Cosmos 2184 Rocket 4.0 21:10:25 10° N 21:16:37 81° E 21:21:54 15° S
Lacrosse 5 3.3 21:14:02 10° WNW 21:18:24 29° SW 21:22:05 13° S
Cosmos 968 Rocket 4.5 21:18:44 10° N 21:23:29 34° ENE 21:26:36 19° ESE
Cosmos 1328 4.2 21:22:06 23° SSE 21:24:08 44° E 21:27:57 10° NNE
USA 276 4.5 21:24:17 10° NW 21:26:44 22° N 21:29:12 10° NE
Cosmos 2082 Rocket 2.6 21:27:22 17° S 21:31:31 45° ESE 21:36:54 10° NE
Cosmos 2360 4.2 21:26:25 10° NNW 21:32:12 81° ENE 21:35:50 24° SSE
USA 245 3.9 21:30:03 16° S 21:33:11 51° WSW 21:36:35 10° NNW
Cosmos 1455 4.3 21:30:41 10° NW 21:33:46 23° W 21:36:50 10° SW
ARIANE 5 R/B 3.0 21:35:43 26° SE 21:37:54 50° ENE 21:42:12 10° N
USA 267 3.7 21:32:56 10° ENE 21:38:52 36° SE 21:44:46 10° SSW
Cosmos 1606 Rocket 3.5 21:36:57 10° N 21:41:17 74° E 21:43:23 30° SSE
Meteor 1-21 Rocket 4.2 21:36:53 11° S 21:42:14 84° W 21:47:58 10° N
GP-B 4.3 21:38:32 10° NNE 21:42:21 28° E 21:43:34 24° ESE
Cosmos 192 4.2 21:43:00 17° S 21:46:43 74° ESE 21:51:38 10° NNE
Cosmos 1892 2.9 22:02:06 45° SE 22:02:39 49° E 22:06:19 10° NNE
SAR-Lupe-1 4.4 22:00:01 10° NNE 22:03:27 44° E 22:03:39 44° ESE
Cosmos 1726 Rocket 3.5 21:59:40 10° N 22:04:00 82° W 22:05:41 37° S
Nadezhda 1 Rocket 4.4 22:03:16 11° SSW 22:08:57 57° W 22:14:57 10° N
Cosmos 2181 Rocket 4.2 22:07:22 31° SSE 22:10:04 52° E 22:16:05 10° NNE
Cosmos 962 Rocket 4.5 22:07:34 10° N 22:13:52 89° E 22:17:08 31° S
Cosmos 1992 Rocket 4.2 22:15:19 38° SSE 22:16:55 52° ESE 22:22:00 10° NNE
SL-16 R/B 3.6 22:13:23 10° N 22:18:17 29° NE 22:21:23 18° E
SL-8 R/B 4.1 22:13:47 10° WNW 22:18:23 45° SW 22:19:18 40° S
Cosmos 1980 Rocket 2.1 22:12:47 10° NNW 22:18:31 85° WSW 22:20:52 37° SSE
Cosmos 1697 Rocket 3.5 22:13:18 10° NW 22:18:33 42° WSW 22:21:16 25° SSW
Cosmos 1932 4.3 22:13:39 17° SSW 22:18:34 74° ESE 22:24:53 10° NE
X-37B 2.0 22:16:41 10° W 22:18:13 26° W 22:18:13 26° W
Cosmos 2369 3.8 22:16:24 10° NNW 22:22:08 71° WSW 22:24:30 36° S
TIMED 4.5 22:21:54 35° SSW 22:23:42 82° WNW 22:28:05 10° NNE
COSMOS 2406 4.0 22:20:09 10° SW 22:25:44 51° WNW 22:31:21 10° NNE
ATLAS 5 CENTAUR R/B 1.0 22:29:23 70° SSE 22:29:35 73° SE 22:33:37 10° NE
Cosmos-2242 4.5 22:27:08 10° NNE 22:30:34 23° ENE 22:31:12 23° E
Cosmos 1602 Rocket 4.3 22:32:11 36° E 22:32:23 36° E 22:36:21 10° NNE
In-Cosmos 22 Rocket 4.1 22:30:23 38° S 22:32:36 80° E 22:38:04 10° NNE
Cosmos 1869 3.4 22:31:01 10° N 22:34:51 57° E 22:35:09 55° E
Cosmos 2084 Rocket 4.0 22:32:31 10° NW 22:36:13 39° WSW 22:36:30 38° SW
Terra 3.2 22:35:21 21° SW 22:37:31 30° W 22:41:43 10° NW
Meteor 1-27 4.1 22:35:11 10° N 22:40:46 80° E 22:42:35 44° SSE
ALOS 2 4.0 22:39:48 25° E 22:40:47 27° ENE 22:44:29 10° N
FALCON 9 DEB 4.0 22:38:50 10° NW 22:41:56 40° NNE 22:42:17 38° NE
ASTEX 1 3.7 22:38:55 10° N 22:43:53 65° W 22:45:49 36° SSW
ADEOS Rocket 4.1 22:45:43 27° ESE 22:49:26 48° ENE 22:56:46 10° N
Cosmos 1825 2.1 22:49:40 74° WSW 22:49:49 76° W 22:53:35 10° N
SL-8 Rocket 4.1 22:44:16 10° NNW 22:50:28 69° W 22:53:01 36° SSW
Cosmos 1408 4.0 22:50:12 25° WSW 22:51:00 28° WNW 22:54:02 10° NNW
Cosmos 2058 Rocket 3.9 22:47:16 10° NNW 22:51:28 43° W 22:52:35 36° SW
Cosmos 2322 Rocket 3.2 22:48:38 10° N 22:53:55 38° ENE 22:56:24 26° ESE
Cosmos 1626 Rocket 3.5 22:54:44 62° SSW 22:55:23 81° W 22:59:46 10° N
Cosmos 1503 Rocket 4.3 22:51:57 10° NNW 22:57:11 58° ENE 22:58:35 44° ESE
USA 276 3.5 23:00:11 10° NW 23:02:50 36° N 23:02:50 36° N
Cosmos 2278 3.9 22:59:10 10° NNW 23:04:48 62° WSW 23:06:17 46° SSW
Cosmos 1825 Rocket 4.3 23:08:18 37° E 23:08:18 37° E 23:12:10 10° NNE
Cosmos 2333 Rocket 4.1 23:04:23 10° N 23:08:51 22° NE 23:12:52 12° E
Cosmos 2366 rocket 4.3 23:03:20 10° NNW 23:09:33 59° W 23:12:00 36° SSW
Gbstr 26 Del rocket 4.1 23:11:09 32° E 23:11:09 32° E 23:14:13 10° ENE
SJ 16-02 1.9 23:07:28 10° N 23:11:46 47° ENE 23:12:19 44° E
Cosmos 1340 Rocket 4.4 23:13:04 24° ENE 23:13:04 24° ENE 23:15:43 10° NE
Cosmos 2218 Rocket 4.4 23:06:54 10° NNW 23:13:07 55° W 23:15:36 35° SSW
Meteor 2-20 4.3 23:13:52 48° S 23:15:43 82° E 23:21:50 10° N
Cosmos 2082 Rocket 3.9 23:10:46 10° WSW 23:15:45 30° NW 23:20:45 10° N
Cosmos 1867 4.3 23:11:25 10° NW 23:16:23 36° WSW 23:17:08 35° SW
H-2A R/B 3.4 23:16:46 10° NNE 23:20:56 73° E 23:20:56 73° E
USA 267 3.5 23:15:38 10° NE 23:22:09 71° NW 23:28:39 10° WSW
Cosmos 2058 3.3 23:26:08 53° E 23:26:08 53° E 23:29:59 10° NNE
Cosmos 2221 4.1 23:24:08 10° NNE 23:27:42 24° ENE 23:28:17 23° E
Spot 4 3.9 23:27:39 57° SW 23:28:14 62° WSW 23:33:00 10° NNW
Cosmos 1606 2.9 23:24:45 10° N 23:28:16 65° NE 23:28:16 65° NE
Cosmos 2360 Rocket 2.9 23:24:24 10° NNW 23:29:53 47° ENE 23:32:00 32° ESE
Cosmos 1934 Rocket 4.4 23:25:18 10° N 23:31:15 51° ENE 23:33:06 39° SE
Cosmos 1833 4.4 23:39:57 48° SE 23:40:28 49° ESE 23:45:51 10° NE
Cosmos 44 3.7 23:41:21 43° E 23:41:21 43° E 23:45:01 10° NE
Meteor 2-2 Rocket 4.4 23:36:58 10° N 23:43:00 71° ENE 23:44:36 49° SE
Meteor 2-20 Rocket 4.4 23:42:26 50° SSW 23:44:09 85° W 23:50:17 10° N
Cosmos 2237 4.1 23:39:53 10° NNW 23:45:39 89° WSW 23:46:52 57° SSE
Cosmos 1633 4.1 23:45:56 28° WNW 23:45:56 28° WNW 23:48:45 10° NNW
Cosmos 1758 Rocket 4.2 23:45:44 43° W 23:46:12 45° WNW 23:50:26 10° N
